This is the latest recevied weather packets stored in our database for station/object KF5JED-13. If no packets are shown the sender has not sent any weather packets the latest 10 day(s).
| Time | Temp. | Humidity | Pressure | Rain* | Wind** | Luminosity | Snow |
|---|---|---|---|---|---|---|---|
| 1777600917 | 13.89° C | 66% | 1016.2 hPa | 0 mm | - | 0 W/m² | - |
| 1777600612 | 13.89° C | 66% | 1016.2 hPa | 0 mm | - | 0 W/m² | - |
| 1777600309 | 13.89° C | 66% | 1016.1 hPa | 0 mm | - | 0 W/m² | - |
| 1777600005 | 13.89° C | 66% | 1016 hPa | 0 mm | - | 0 W/m² | - |
| 1777599701 | 13.89° C | 66% | 1016 hPa | 0 mm | - | 0 W/m² | - |
| 1777599397 | 13.89° C | 66% | 1015.8 hPa | 0 mm | - | 1 W/m² | - |
| 1777599095 | 13.89° C | 66% | 1015.5 hPa | 0 mm | - | 3 W/m² | - |
| 1777598793 | 13.89° C | 66% | 1015.7 hPa | 0 mm | - | 4 W/m² | - |
| 1777598486 | 13.89° C | 65% | 1015.6 hPa | 0 mm | - | 4 W/m² | - |
| 1777598185 | 13.89° C | 65% | 1015.6 hPa | 0 mm | - | 6 W/m² | - |
| 1777597880 | 13.89° C | 66% | 1015.5 hPa | 0 mm | - | 10 W/m² | - |
| 1777597575 | 13.89° C | 66% | 1015.6 hPa | 0 mm | - | 12 W/m² | - |
| 1777597271 | 13.89° C | 65% | 1015.5 hPa | 0 mm | - | 15 W/m² | - |
| 1777596966 | 13.89° C | 65% | 1015.5 hPa | 0 mm | - | 18 W/m² | - |
| 1777596663 | 13.89° C | 65% | 1015.6 hPa | 0 mm | - | 23 W/m² | - |
| 1777596360 | 14.44° C | 64% | 1015.3 hPa | 0 mm | - | 29 W/m² | - |
| 1777596058 | 14.44° C | 64% | 1015.6 hPa | 0 mm | - | 34 W/m² | - |
| 1777595757 | 14.44° C | 64% | 1015.5 hPa | 0 mm | - | 35 W/m² | - |
| 1777595453 | 14.44° C | 63% | 1015.3 hPa | 0 mm | - | 41 W/m² | - |
| 1777595149 | 14.44° C | 63% | 1015.5 hPa | 0 mm | - | 42 W/m² | - |
| 1777594846 | 14.44° C | 63% | 1015.5 hPa | 0 mm | - | 39 W/m² | - |
| 1777594542 | 15° C | 62% | 1015.1 hPa | 0 mm | - | 40 W/m² | - |
| 1777594239 | 15° C | 61% | 1015.3 hPa | 0 mm | - | 56 W/m² | - |
| 1777593934 | 15° C | 61% | 1015.1 hPa | 0 mm | - | 64 W/m² | - |
| 1777593631 | 15° C | 61% | 1015.1 hPa | 0 mm | - | 83 W/m² | - |
* Rain latest hour (hover to see other rain measurements)
** Current wind speed in m/s (hover to see current wind gust speed)